THOR ABLESTAR DEB, 967

Orbit data source: Space-Track

THOR ABLESTAR DEB, 967 is space debris in LEO originally from a launch on Sun, 13 Dec 1964 UTC launched from the Air Force Western Test Range (AFWTR). Debris objects in space refer to the collection of defunct objects orbiting the Earth. Examples of debris include non-operational satellites, rocket bodies, and fragments generated from explosions, collisions, or faulty payload assembly.

Loading next visibility...
Identifier
967, 1964-083F
Orbit
LEO
Last TLE update
11 hours ago
Origin
Manufacturer
Unknown
Mission
Spacecraft
Bus & Motor
Unknown
Mass
Unknown
Launch date (UTC)
1964-12-13 (61 years ago)
Launch vehicle
Unknown
Launch site
Air Force Western Test Range (AFWTR)
Object type
Payload
Rocket body
Debris
Shape & HBR
Unknown
Radar Cross Section
Small (<0.1 m²)

Expand to show TLE details & history

TLE from 11 hours ago
0 THOR ABLESTAR DEB
1 00967U 64083F   25181.92039296  .00000221  00000-0  25159-3 0  9990
2 00967  89.9496 175.5008 0022134   5.6875  21.3817 13.67222588  7988
Epoch: 2025-06-30T22:05Z
TLE epoch observation values (Epoch: 2025-06-30T22:05:21.951Z)
Latitude
27.19814°
Longitude
-75.03817°
Altitude
997.735 km
Speed
7.363 km/s
True Right ascension
11h 42m 06s
True Declination
27° 03' 47"
Sunlit
Object was in daylight at epoch
Visualization orbit readout
Latitude
50.58256°
Longitude
-75.00526°
Altitude
1,006.373 km
Speed
7.359 km/s
Apparent Right ascension
10h 00m 12s
Apparent Declination
10° 29' 19"
Sunlit
Object is in daylight
Visualization observer readout
Local Sidereal Time
20:22:39
Azimuth
330.385° NNW
Elevation
-34.755°
Doppler factor
1
Orbital elements
Apogee altitude
1,022.929 km
Perigee altitude
990.238 km
Semi-major axis
7,384.721 km
Eccentricity
0.00221
Inclination
89.9496°
RAAN
175.5008°
Arg. of periapsis
5.6875°
True anomaly
Unknown
Mean anomaly
21.3817°
Eccentric anomaly
Unknown
Mean motion
3.42013 °/min
Orbital period
105.26 mins
BSTAR
0.00025159
Loading maneuver chart data...
Loading SW <> Apogee altitude chart data...

THOR ABLESTAR DEB Visibility forecast

Observer location: undefined°, undefined°

Span
Click to sort rows by Start time (UTC) header in descending order
Start Az.
Max El. time (UTC)
Max El. Az.
Max El.
End time (UTC)
End Az.
9 mins2025-07-01 10:51:29.309Z31.032° NE2025-07-01 10:55:29.309Z75.17° E24.189°2025-07-01 11:00:29.309Z133.842° SE
10 mins2025-07-01 12:36:29.309Z344.98° N2025-07-01 12:41:29.309Z273.182° WNW35.417°2025-07-01 12:46:29.309Z211.599° SW
7 mins2025-07-01 22:42:29.309Z107.248° ESE2025-07-01 22:45:29.309Z70.333° E20.704°2025-07-01 22:49:29.309Z28.479° NE
10 mins2025-07-02 00:25:29.309Z200.398° SSW2025-07-02 00:29:29.309Z258.279° W38.671°2025-07-02 00:35:29.309Z347.172° N
|